Jaffrey, NH

10:54 PM EDT on October 23, 2019 (GMT -0400)
Jaffrey Airport-Silver Ranch

Weather History for KAFN - September, 2019

Change the Weather History Date:

Saturday, September 21, 2019

  Actual Average Record
Temperature  
Mean Temperature 64 °F -  
Max Temperature 82 °F 66 °F 82 °F (2019)
Min Temperature 48 °F 45 °F 37 °F (1997)
Growing Degree Days 14 (Base 50)    
Moisture  
Dew Point 54 °F    
Average Humidity 72    
Maximum Humidity 93    
Minimum Humidity 42    
Precipitation  
Precipitation 0.00 in - - ()
Sea Level Pressure  
Sea Level Pressure 30.21 in    
Wind  
Wind Speed 1 mph (SW)    
Max Wind Speed 7 mph    
Max Gust Speed -    
Visibility 10 miles    
Events      
Averages and records for this station are not official NWS values.
T = Trace of Precipitation, MM = Missing Value Source: NWS Daily Summary

Daily Weather History Graph

Daily Weather History Graph

Search for Another Location

Airport or City:

Astronomy

Sep. 21, 2019 Rise Set
Actual Time 6:33 AM EDT 6:47 PM EDT
Civil Twilight 6:05 AM EDT 7:15 PM EDT
Nautical Twilight 5:32 AM EDT 7:48 PM EDT
Astronomical Twilight 4:58 AM EDT 8:22 PM EDT
Moon 11:13 PM EDT (9/21) 1:46 PM EDT (9/21)
Length of Visible Light 13h 10m
Length of Day
12h 13m
Waning Gibbous, 55% of the Moon is Illuminated
Sep 21
Waning Gibbous
Sep 21
Last Quarter
Sep 28
New
Oct 5
First Quarter
Oct 13
Full

Hourly Weather History & Observations

Time (EDT) Temp. Heat Index Dew Point Humidity Pressure Visibility Wind Dir Wind Speed Gust Speed Precip Events Conditions
12:52 AM 52.0 °F - 48.9 °F 89% 30.19 in 10.0 mi Calm Calm - N/A   Clear
1:52 AM 51.1 °F - 48.0 °F 89% 30.20 in 10.0 mi Calm Calm - N/A   Clear
2:52 AM 51.1 °F - 48.0 °F 89% 30.20 in 10.0 mi Calm Calm - N/A   Clear
3:52 AM 50.0 °F - 46.9 °F 89% 30.20 in 10.0 mi Calm Calm - N/A   Clear
4:52 AM 50.0 °F - 46.9 °F 89% 30.22 in 10.0 mi Calm Calm - N/A   Clear
5:52 AM 48.9 °F - 46.0 °F 90% 30.22 in 10.0 mi Calm Calm - N/A   Clear
6:52 AM 48.9 °F - 46.0 °F 90% 30.24 in 10.0 mi Calm Calm - N/A   Clear
7:52 AM 52.0 °F - 48.9 °F 89% 30.26 in 10.0 mi Calm Calm - N/A   Clear
8:52 AM 61.0 °F - 54.0 °F 78% 30.26 in 10.0 mi Calm Calm - N/A   Clear
9:52 AM 71.1 °F - 54.0 °F 55% 30.26 in 10.0 mi Variable 3.5 mph - N/A   Clear
10:52 AM 75.0 °F - 57.9 °F 55% 30.26 in 10.0 mi Calm Calm - N/A   Clear
11:52 AM 79.0 °F - 57.0 °F 47% 30.24 in 10.0 mi Variable 3.5 mph - N/A   Clear
12:52 PM 80.1 °F 80.2 °F 55.9 °F 43% 30.22 in 10.0 mi NW 4.6 mph - N/A   Clear
1:52 PM 81.0 °F 81.0 °F 57.0 °F 44% 30.20 in 10.0 mi SSW 6.9 mph - N/A   Clear
2:52 PM 81.0 °F 81.0 °F 57.0 °F 44% 30.19 in 10.0 mi Variable 3.5 mph - N/A   Partly Cloudy
3:52 PM 81.0 °F 81.0 °F 57.0 °F 44% 30.19 in 10.0 mi South 5.8 mph - N/A   Clear
4:52 PM 81.0 °F 80.8 °F 55.9 °F 42% 30.19 in 10.0 mi West 5.8 mph - N/A   Clear
5:52 PM 80.1 °F 80.2 °F 55.9 °F 43% 30.19 in 10.0 mi West 3.5 mph - N/A   Clear
6:52 PM 70.0 °F - 61.0 °F 73% 30.19 in 10.0 mi Calm Calm - N/A   Clear
7:52 PM 64.0 °F - 60.1 °F 87% 30.20 in 10.0 mi Calm Calm - N/A   Clear
8:52 PM 62.1 °F - 57.9 °F 86% 30.21 in 10.0 mi South 3.5 mph - N/A   Clear
9:52 PM 60.1 °F - 57.0 °F 90% 30.21 in 10.0 mi Calm Calm - N/A   Clear
10:52 PM 57.9 °F - 55.9 °F 93% 30.21 in 10.0 mi Calm Calm - N/A   Clear
11:52 PM 57.0 °F - 55.0 °F 93% 30.20 in 10.0 mi South 3.5 mph - N/A   Clear